Probability
0 0 0 0 0 0 0 0 0 0 0 0 0 0 3 13 32 65 84 87 100 100 100 100 100 100 100 100 100 100 100 100 100 100 100 100 100 100 100 100 100 100 100 100 100 100 100 100 100
0 0 0 0 0 0 0 0 0 0 0 0 0 0 6 26 45 55 84 97 100 100 100 100 100 100 100 100 100 100 100 100 100 100 100 100 100 100 100 100 100 100 100 100 100 100 100 100 100
0 0 0 0 0 0 0 0 0 0 0 0 0 0 10 42 58 84 97 100 100 100 100 100 100 100 100 100 100 100 100 100 100 100 100 100 100 100 100 100 100 100 97 97 97 97 97 100 100
0 0 0 0 0 0 0 0 0 0 0 0 0 0 39 52 68 84 100 100 100 100 100 100 100 100 100 100 100 100 100 100 100 100 100 100 100 100 100 100 97 97 97 97 94 94 94 94 94
0 0 0 0 0 0 0 0 0 0 0 0 0 6 68 68 84 97 100 100 100 100 100 100 100 100 100 100 100 100 100 100 100 100 100 100 100 100 100 100 97 97 97 87 81 84 81 77 77
0 0 0 0 0 0 0 0 0 0 0 0 0 29 74 74 90 97 100 100 100 100 100 100 100 100 100 100 100 100 100 100 100 100 100 100 100 100 100 100 97 94 84 65 61 58 58 55 58
0 0 0 0 0 0 0 0 0 0 0 0 0 29 65 68 90 97 97 100 100 100 100 100 100 100 100 100 100 100 100 100 100 100 100 100 100 100 97 97 97 87 74 58 45 45 42 39 39
0 0 0 0 0 0 0 0 0 0 0 0 0 16 61 71 90 97 97 100 100 100 100 100 100 100 100 100 100 100 100 100 100 100 100 100 100 97 97 97 94 87 74 61 48 35 32 32 35
0 0 0 0 0 0 0 0 0 0 0 0 3 35 55 58 81 94 87 90 100 97 97 100 100 100 97 100 100 100 100 100 100 100 100 100 97 97 97 97 94 84 81 68 65 52 52 58 52
0 0 0 0 0 0 0 0 0 0 0 0 6 39 68 68 77 77 84 84 100 100 97 90 97 100 97 97 100 100 100 100 100 100 100 100 100 100 97 97 100 90 87 87 77 77 77 58 39
0 0 0 0 0 0 0 0 0 0 0 0 6 42 48 71 71 74 77 84 100 100 97 90 97 100 100 100 94 100 100 100 100 100 100 100 100 100 97 94 100 97 97 90 94 84 65 48 39
0 0 0 0 0 0 0 0 0 0 0 0 6 29 45 65 71 68 77 84 90 100 100 100 100 100 100 100 100 100 100 100 100 100 100 100 100 100 97 100 94 100 100 100 100 94 81 71 55
0 0 0 0 0 0 0 0 0 0 0 0 6 19 35 48 65 77 74 81 84 90 97 100 100 100 100 100 100 100 100 100 100 100 100 100 100 100 97 100 100 100 100 100 97 94 97 81 61
0 0 0 0 0 0 0 0 0 0 0 3 10 16 26 35 61 74 77 81 94 97 97 100 100 100 100 100 100 100 100 97 97 100 100 97 100 100 100 100 100 100 97 100 94 87 87 81 81
0 0 0 0 0 0 0 0 0 0 3 3 13 23 23 45 52 71 84 90 97 100 100 100 100 100 100 100 100 100 100 100 100 100 100 100 100 100 100 100 100 100 100 100 90 84 84 77 71
0 0 0 0 0 0 0 0 3 6 6 6 16 23 35 52 55 65 77 90 97 100 100 100 100 100 100 100 100 100 97 100 100 100 100 97 100 100 100 97 97 94 90 90 90 81 81 77 74
0 0 0 0 0 0 0 6 10 10 10 10 26 32 39 52 52 68 71 90 94 97 100 100 100 100 100 100 100 97 97 94 87 87 90 90 94 94 94 94 94 90 87 81 81 81 81 77 65
0 0 0 0 0 0 3 10 10 13 19 26 26 19 19 29 32 55 65 77 90 94 97 97 97 97 100 100 94 90 90 84 84 84 81 81 84 84 84 87 84 87 77 71 71 68 58 55 32
0 0 0 0 3 3 10 16 26 35 42 45 19 23 26 45 48 52 61 68 71 77 87 94 97 97 97 100 94 90 90 77 74 77 74 65 71 71 71 71 65 55 61 58 42 39 32 26 19
0 0 0 0 3 6 23 26 42 45 42 32 29 39 42 35 45 42 45 58 65 61 68 71 77 81 94 87 87 87 81 68 61 58 52 48 48 45 45 42 32 32 32 29 23 23 23 16 10
0 0 0 0 3 10 16 23 32 29 42 39 42 32 29 32 39 42 39 35 35 45 52 55 55 55 68 77 77 77 71 58 58 45 32 26 23 16 19 16 19 19 23 16 13 10 10 6 6
0 0 0 0 3 6 0 3 23 32 23 32 19 10 16 23 19 16 19 16 19 23 29 26 29 39 45 52 61 65 61 55 39 26 16 13 3 3 6 6 6 6 3 6 10 6 10 3 3
0 0 0 0 0 0 0 0 19 23 26 16 13 16 23 16 13 13 13 13 13 13 13 13 13 13 16 26 42 42 35 26 13 10 3 3 3 3 3 3 0 0 0 0 0 0 0 0 3
0 0 0 0 0 0 0 0 10 23 10 16 16 13 10 10 6 6 6 6 6 6 6 6 6 6 6 10 13 10 13 13 10 6 3 3 3 3 0 0 0 0 0 0 0 0 3 0 0
0 0 0 0 0 0 0 0 16 26 16 16 16 10 3 3 0 0 0 3 0 0 0 0 3 0 3 3 3 3 0 0 0 3 3 0 0 0 0 0 0 0 0 0 0 0 0 0 0
0 0 0 0 0 0 0 6 32 26 16 16 10 3 3 0 0 0 0 0 0 0 0 0 0 0 0 0 0 0 0 0 0 0 0 0 0 0 0 0 0 0 0 0 0 0 0 0 0
0 0 0 0 0 0 0 29 23 23 13 6 6 3 0 0 0 0 0 0 0 0 0 0 0 0 0 0 0 0 0 0 0 0 0 0 0 0 0 0 0 0 0 0 0 0 0 0 0
0 0 0 0 0 0 0 6 19 19 6 3 0 0 0 0 0 0 0 0 0 0 0 0 0 0 0 0 0 0 0 0 0 0 0 0 0 0 0 0 0 0 0 0 0 0 0 0 0
0 0 0 0 0 0 0 0 10 13 3 0 3 3 0 0 0 0 0 0 0 0 0 0 0 0 0 0 0 0 0 0 0 0 0 0 0 0 0 0 0 0 0 0 0 0 0 0 0
0 0 0 0 0 0 0 0 6 10 3 0 0 0 0 0 0 0 0 0 0 0 0 0 0 0 0 0 0 0 0 0 0 0 0 0 0 0 0 0 0 0 0 0 0 0 0 0 0
Height
5882 5883 5884 5886 5889 5891 5892 5892 5891 5890 5888 5890 5893 5893 5892 5892 5891 5894 5891 5891 5894 5894 5895 5896 5896 5897 5897 5898 5898 5899 5900 5900 5901 5902 5903 5903 5903 5903 5903 5903 5903 5902 5902 5902 5901 5901 5901 5901 5900
5880 5881 5882 5883 5885 5887 5890 5888 5888 5888 5889 5891 5892 5893 5891 5889 5890 5890 5890 5891 5893 5892 5893 5894 5894 5895 5895 5896 5896 5897 5898 5899 5899 5900 5901 5902 5902 5902 5902 5902 5901 5901 5901 5900 5900 5900 5900 5900 5900
5877 5877 5879 5880 5882 5884 5885 5884 5884 5884 5888 5890 5890 5891 5890 5889 5889 5889 5889 5890 5891 5891 5891 5891 5892 5893 5893 5893 5894 5895 5896 5897 5898 5899 5900 5900 5900 5900 5900 5900 5900 5900 5900 5899 5899 5899 5899 5899 5899
5873 5874 5876 5878 5880 5882 5883 5881 5880 5881 5884 5887 5888 5888 5887 5888 5888 5888 5888 5889 5890 5889 5889 5889 5889 5890 5890 5891 5892 5893 5894 5895 5896 5897 5898 5899 5899 5899 5899 5899 5899 5899 5898 5898 5898 5899 5899 5899 5899
5867 5870 5872 5874 5877 5879 5880 5879 5878 5878 5881 5885 5886 5884 5883 5884 5886 5886 5887 5887 5887 5887 5886 5886 5887 5887 5888 5889 5890 5891 5892 5893 5894 5895 5896 5897 5897 5897 5897 5897 5898 5897 5897 5897 5898 5898 5898 5898 5898
5862 5865 5868 5871 5874 5876 5877 5876 5876 5876 5879 5883 5884 5882 5881 5883 5884 5884 5884 5884 5885 5885 5884 5884 5884 5885 5886 5887 5888 5889 5890 5892 5893 5894 5895 5895 5896 5896 5896 5896 5896 5896 5896 5896 5897 5897 5897 5897 5897
5857 5860 5863 5867 5869 5873 5876 5875 5875 5876 5879 5881 5881 5878 5877 5878 5879 5882 5882 5882 5882 5882 5882 5882 5882 5883 5884 5885 5886 5887 5889 5890 5891 5892 5893 5894 5894 5895 5895 5895 5895 5895 5895 5895 5896 5896 5896 5896 5896
5850 5853 5857 5861 5865 5869 5873 5871 5872 5875 5876 5877 5878 5875 5871 5870 5874 5879 5879 5880 5880 5880 5880 5880 5880 5881 5882 5883 5884 5885 5887 5888 5889 5890 5891 5892 5893 5893 5893 5894 5894 5894 5894 5894 5895 5895 5895 5895 5894
5842 5846 5851 5857 5861 5865 5868 5866 5866 5870 5872 5874 5874 5871 5869 5868 5872 5876 5876 5877 5878 5878 5878 5878 5878 5879 5880 5881 5882 5883 5885 5886 5887 5888 5889 5890 5891 5892 5892 5892 5893 5893 5893 5893 5893 5893 5893 5893 5893
5836 5839 5847 5852 5855 5860 5863 5863 5861 5863 5867 5871 5871 5867 5867 5868 5871 5873 5873 5874 5875 5875 5875 5876 5876 5877 5878 5879 5880 5881 5883 5884 5885 5886 5888 5889 5890 5890 5891 5891 5891 5892 5892 5892 5892 5892 5892 5891 5891
5829 5833 5839 5843 5847 5852 5855 5857 5859 5861 5864 5867 5868 5863 5862 5863 5867 5870 5871 5871 5872 5873 5873 5874 5874 5875 5876 5877 5878 5879 5881 5882 5884 5885 5886 5887 5888 5889 5889 5890 5890 5890 5890 5890 5890 5890 5890 5890 5889
5823 5827 5831 5835 5839 5843 5847 5850 5853 5856 5860 5862 5862 5860 5859 5857 5862 5866 5868 5868 5869 5870 5871 5871 5872 5873 5874 5876 5877 5878 5879 5881 5882 5883 5884 5885 5886 5887 5888 5888 5888 5889 5889 5889 5889 5888 5888 5887 5887
5817 5820 5824 5828 5832 5836 5840 5845 5849 5852 5855 5857 5857 5857 5857 5856 5860 5864 5864 5865 5866 5868 5868 5868 5868 5870 5872 5873 5875 5877 5878 5879 5880 5881 5882 5883 5884 5885 5886 5886 5886 5886 5887 5887 5886 5886 5885 5885 5884
5811 5814 5817 5821 5825 5830 5835 5840 5844 5848 5851 5852 5854 5854 5854 5854 5857 5858 5858 5859 5862 5865 5866 5866 5867 5868 5870 5871 5873 5874 5876 5877 5878 5879 5880 5881 5882 5882 5883 5883 5883 5883 5884 5883 5883 5883 5882 5881 5880
5804 5807 5811 5815 5819 5824 5829 5834 5839 5843 5845 5848 5850 5851 5851 5851 5853 5853 5853 5856 5857 5860 5862 5864 5865 5866 5867 5869 5870 5872 5873 5874 5876 5877 5878 5878 5878 5879 5879 5880 5880 5880 5880 5879 5879 5878 5878 5877 5876
5799 5803 5806 5811 5814 5819 5824 5829 5834 5837 5840 5843 5845 5846 5846 5847 5848 5847 5848 5851 5853 5857 5859 5860 5862 5863 5865 5866 5867 5869 5870 5871 5872 5873 5874 5874 5875 5875 5875 5876 5876 5876 5875 5875 5874 5873 5873 5872 5870
5796 5799 5803 5808 5810 5814 5819 5824 5828 5831 5835 5838 5839 5840 5841 5842 5842 5842 5841 5846 5849 5853 5855 5857 5858 5860 5861 5863 5864 5865 5866 5867 5867 5868 5869 5870 5870 5870 5870 5870 5871 5870 5870 5869 5868 5868 5867 5866 5864
5796 5800 5803 5807 5809 5812 5815 5819 5823 5826 5829 5832 5834 5834 5832 5835 5834 5834 5836 5840 5844 5849 5851 5852 5854 5855 5857 5859 5860 5861 5862 5863 5863 5863 5864 5865 5865 5864 5864 5864 5864 5864 5864 5863 5862 5861 5859 5858 5856
5791 5797 5802 5806 5807 5809 5811 5814 5818 5821 5823 5825 5827 5829 5826 5827 5830 5831 5833 5837 5842 5844 5846 5847 5849 5851 5853 5854 5856 5857 5858 5858 5858 5858 5859 5859 5859 5858 5858 5858 5857 5857 5856 5856 5855 5853 5852 5850 5848
5788 5793 5798 5801 5803 5805 5808 5811 5814 5815 5817 5820 5821 5822 5822 5821 5824 5826 5828 5833 5836 5839 5841 5843 5845 5847 5848 5849 5850 5851 5852 5852 5852 5852 5853 5853 5852 5851 5851 5850 5850 5849 5848 5848 5847 5846 5844 5842 5841
5784 5789 5793 5797 5799 5801 5805 5807 5810 5811 5812 5815 5817 5818 5818 5813 5816 5820 5825 5829 5832 5835 5837 5839 5840 5842 5843 5844 5844 5845 5845 5846 5846 5846 5847 5846 5844 5844 5843 5842 5842 5841 5840 5840 5839 5838 5837 5835 5834
5782 5786 5790 5793 5796 5798 5802 5804 5806 5807 5808 5810 5812 5814 5814 5814 5816 5818 5821 5825 5827 5830 5832 5834 5835 5837 5838 5839 5839 5839 5840 5840 5840 5840 5840 5838 5837 5837 5836 5835 5834 5833 5832 5832 5831 5831 5829 5827 5826
5780 5784 5787 5789 5793 5796 5799 5801 5801 5802 5803 5805 5807 5809 5811 5812 5814 5815 5818 5821 5823 5825 5827 5828 5830 5831 5832 5833 5833 5833 5833 5833 5833 5832 5831 5831 5830 5829 5828 5828 5826 5825 5825 5824 5823 5823 5821 5819 5817
5776 5781 5785 5787 5791 5793 5794 5797 5797 5797 5798 5800 5803 5805 5807 5809 5811 5812 5815 5817 5819 5821 5822 5823 5824 5826 5827 5827 5827 5827 5827 5826 5825 5825 5824 5824 5822 5822 5820 5819 5818 5818 5816 5816 5815 5814 5812 5810 5808
5774 5780 5784 5787 5789 5791 5793 5792 5791 5791 5793 5795 5799 5801 5803 5804 5807 5809 5811 5813 5815 5816 5817 5818 5819 5820 5821 5821 5821 5821 5820 5819 5818 5817 5817 5817 5815 5814 5813 5811 5810 5809 5808 5806 5805 5804 5802 5800 5798
5773 5778 5784 5787 5790 5791 5791 5788 5787 5788 5790 5793 5796 5798 5800 5801 5803 5805 5806 5808 5809 5811 5812 5813 5813 5814 5814 5815 5815 5814 5813 5812 5811 5810 5809 5808 5807 5806 5804 5802 5801 5799 5798 5796 5795 5793 5791 5789 5786
5774 5776 5780 5783 5784 5785 5785 5783 5783 5785 5787 5790 5792 5794 5795 5797 5798 5799 5801 5802 5804 5805 5805 5806 5806 5807 5807 5807 5807 5806 5806 5805 5803 5802 5801 5799 5798 5796 5794 5792 5791 5789 5787 5785 5783 5782 5779 5777 5775
5773 5777 5778 5779 5779 5780 5780 5779 5779 5780 5782 5785 5787 5789 5791 5792 5793 5794 5795 5797 5798 5798 5799 5799 5800 5800 5800 5800 5799 5799 5798 5796 5795 5793 5792 5790 5788 5786 5784 5782 5780 5778 5776 5774 5772 5770 5767 5765 5762
5772 5775 5776 5778 5778 5777 5776 5776 5772 5774 5776 5779 5781 5784 5785 5787 5788 5789 5789 5790 5791 5792 5792 5792 5792 5792 5792 5792 5791 5790 5789 5787 5786 5784 5782 5780 5778 5776 5774 5771 5769 5767 5765 5762 5760 5757 5754 5751 5748
5772 5773 5775 5776 5775 5774 5771 5771 5766 5766 5770 5774 5777 5779 5780 5781 5782 5783 5783 5784 5784 5785 5785 5785 5785 5784 5784 5783 5782 5781 5779 5778 5776 5774 5772 5770 5768 5766 5764 5761 5759 5756 5753 5750 5747 5744 5741 5738 5735
Wind_Speed
11 13 15 16 15 13 10 12 13 11 8 10 13 13 14 15 15 15 13 12 10 13 13 13 13 14 15 15 15 14 14 13 13 13 13 12 11 11 10 9 8 8 7 7 6 6 5 5 6
14 14 17 18 18 15 13 17 16 12 12 15 16 15 16 16 14 15 14 13 12 14 14 15 15 16 17 17 17 16 16 15 14 14 13 12 12 11 10 9 8 7 7 6 5 5 5 5 5
18 18 19 20 19 17 18 20 18 11 10 15 18 17 18 17 15 15 16 16 14 15 16 17 17 17 18 18 18 17 16 15 15 14 14 13 12 11 10 9 8 7 6 5 5 4 4 4 5
23 22 21 20 18 17 19 23 18 11 10 13 17 17 20 17 16 15 15 15 14 16 17 17 17 18 18 19 19 18 17 16 15 14 13 12 11 10 9 8 8 7 6 5 4 4 4 4 5
28 26 24 20 17 18 19 24 19 12 9 11 16 19 20 16 15 15 15 15 15 15 16 16 17 18 18 18 18 18 16 15 14 13 13 12 11 10 9 9 8 7 6 5 4 4 4 4 5
31 30 27 22 19 18 21 24 19 13 10 11 15 20 23 18 14 13 14 14 14 14 14 15 16 17 17 18 17 17 16 15 14 13 12 12 11 10 10 9 8 7 6 5 5 5 5 5 5
33 33 30 25 22 21 22 27 23 18 15 18 19 21 24 19 13 12 13 13 13 13 13 13 15 16 16 16 16 16 15 14 13 12 12 12 11 10 9 9 8 7 7 6 6 5 5 5 6
34 35 34 30 25 22 23 28 26 25 20 24 24 24 27 18 10 12 13 14 12 12 12 12 13 15 15 15 15 15 14 14 13 12 12 11 10 10 9 9 8 8 8 7 7 6 6 6 7
35 37 35 31 28 23 23 28 27 26 23 24 26 29 31 19 10 12 14 13 12 11 11 12 12 13 15 15 15 15 14 14 13 12 12 11 11 10 10 10 9 9 9 9 8 8 8 8 8
35 38 35 33 29 25 23 26 26 22 23 23 25 31 30 21 15 14 14 14 12 11 11 11 12 13 14 14 15 14 14 13 13 12 12 11 11 11 11 11 10 10 10 10 10 10 10 11 11
33 35 35 35 32 30 28 27 25 25 23 21 22 28 26 19 17 17 17 15 13 12 12 11 12 13 13 14 14 14 14 13 13 12 12 12 12 12 12 12 12 12 11 12 12 13 13 14 14
31 33 35 37 36 35 36 34 29 25 23 23 26 30 26 19 17 19 19 17 15 14 13 12 13 13 13 13 13 13 13 13 13 13 12 12 13 13 13 13 13 13 14 14 15 16 17 18 18
30 32 35 38 40 40 39 36 31 27 25 26 29 30 27 21 19 21 21 19 17 15 14 14 13 13 13 13 13 13 13 14 13 13 13 13 13 13 13 14 15 16 16 17 19 20 20 21 22
28 30 33 37 39 40 40 36 34 31 28 28 30 29 26 23 23 24 24 22 18 16 15 15 14 14 14 14 14 14 14 14 14 14 14 15 15 15 15 16 17 18 19 21 22 23 24 25 26
28 30 31 34 35 36 37 36 33 32 32 30 29 31 28 28 29 28 27 22 18 16 15 15 15 15 15 15 15 16 16 15 16 16 16 17 17 17 18 19 20 21 23 24 25 26 27 28 29
25 27 27 26 29 31 34 33 31 31 31 30 29 30 30 31 32 29 28 23 19 17 16 16 15 15 16 16 17 18 18 18 18 19 19 19 20 20 21 22 23 24 25 26 27 28 30 31 33
19 19 19 17 21 25 29 28 25 26 29 29 30 30 29 31 32 29 27 25 20 19 17 18 17 17 17 18 18 19 20 20 21 21 21 22 23 24 25 25 25 27 28 29 31 32 33 35 36
9 11 12 13 18 22 24 24 23 25 28 30 31 31 32 32 33 31 28 24 21 21 20 20 20 19 19 19 20 21 22 23 23 23 24 25 27 28 29 29 29 30 31 32 33 34 35 35 35
13 13 14 15 19 21 21 24 26 28 30 30 30 31 32 32 32 30 28 27 24 23 21 21 21 21 22 22 23 24 25 26 27 27 27 27 28 30 32 32 33 33 34 35 35 35 34 34 33
17 16 17 18 20 21 22 26 29 30 30 30 30 32 30 30 30 28 27 26 25 24 24 23 23 24 25 25 26 27 27 28 29 29 29 30 31 32 33 33 34 36 37 36 35 33 31 30 31
20 18 17 17 19 21 23 27 29 30 32 31 31 32 30 28 26 26 25 25 25 26 26 25 25 25 27 28 29 30 30 29 30 31 32 33 33 33 33 34 36 37 37 34 33 30 30 30 29
18 19 17 17 18 20 23 25 27 28 31 31 30 30 28 25 25 24 25 26 27 27 27 27 27 27 28 30 30 31 32 33 33 33 33 33 33 34 35 36 36 34 33 32 31 31 32 32 32
15 17 18 18 18 17 19 22 23 25 28 29 28 28 28 27 26 25 25 26 27 28 28 28 27 28 29 31 32 33 35 36 36 36 35 35 34 34 36 37 35 33 33 32 32 33 33 35 36
16 16 18 17 17 20 21 23 24 26 27 26 25 26 26 26 25 25 25 26 28 28 29 30 29 30 32 34 35 36 38 39 39 40 38 37 37 37 37 37 36 35 35 35 35 36 37 38 39
17 16 14 15 18 19 18 22 27 25 25 24 23 23 24 24 24 25 25 26 27 28 29 30 31 33 34 37 38 39 40 41 42 42 41 40 39 39 39 39 38 38 37 38 39 40 41 41 41
17 19 17 15 16 18 20 28 29 26 23 20 20 22 22 23 23 24 24 25 27 28 29 30 32 34 35 37 39 40 40 41 42 42 42 41 41 41 41 41 41 41 41 42 42 42 43 43 44
14 18 16 17 18 19 23 29 30 26 26 23 21 22 22 22 23 23 24 26 27 28 29 30 32 33 35 37 38 39 40 41 42 42 42 42 43 43 44 44 44 43 43 44 44 45 45 46 46
13 14 16 16 16 18 22 25 26 26 24 25 24 23 23 24 24 25 26 27 28 29 30 31 32 34 36 37 39 40 41 42 43 43 44 44 45 45 45 44 45 46 46 47 46 46 47 48 48
15 15 16 14 14 16 18 21 24 24 23 22 23 24 25 26 27 27 28 30 31 32 33 34 35 36 37 38 40 41 42 43 43 44 45 46 45 46 46 46 47 48 48 48 48 48 48 49 50
13 14 15 18 17 16 19 19 18 18 19 20 20 22 24 25 27 28 29 31 32 33 35 36 37 38 39 40 41 41 42 43 44 44 45 45 45 46 47 47 48 48 49 49 49 50 49 50 51
Wind_Direction
244 236 232 229 224 214 214 247 252 254 255 254 255 250 248 243 244 245 250 249 247 250 247 244 241 239 236 233 233 234 237 241 247 250 253 255 259 264 268 271 273 277 281 285 287 289 291 295 299
242 235 230 227 222 211 230 245 241 236 255 262 259 255 253 253 257 260 268 268 261 256 253 249 246 242 239 237 236 238 239 241 245 250 255 259 263 266 268 270 272 276 278 279 283 289 293 298 301
238 235 232 230 224 214 235 243 237 221 247 258 257 255 254 258 263 265 270 272 268 263 259 254 250 246 243 239 239 239 240 243 247 251 256 260 263 264 265 267 270 271 271 274 280 287 292 299 303
236 235 233 233 228 215 242 258 245 216 222 247 254 255 255 252 259 265 271 275 274 270 264 258 253 249 246 242 240 239 241 244 248 252 256 259 260 260 261 261 264 265 266 270 275 281 289 297 305
235 235 235 234 228 215 237 257 256 230 215 243 258 257 257 251 254 266 271 277 279 276 268 260 253 249 245 242 241 240 241 244 247 250 254 257 257 257 256 257 258 259 262 264 270 278 290 299 307
235 234 235 234 228 219 235 252 261 249 241 246 254 258 259 259 256 266 276 281 281 277 269 259 254 249 244 241 240 240 240 242 246 249 253 254 254 254 253 253 252 255 259 263 270 281 294 301 307
235 234 233 232 229 222 237 247 249 248 243 247 247 254 259 254 249 263 274 281 283 275 267 258 253 247 241 238 239 239 240 243 246 249 251 252 252 251 250 250 251 254 257 263 271 282 293 301 306
234 234 232 229 229 225 236 245 241 245 242 247 250 255 256 239 240 263 275 281 283 276 267 258 250 243 238 236 238 238 239 242 244 245 247 248 248 248 247 249 251 253 257 264 271 282 292 299 304
234 233 230 229 230 228 238 250 240 236 240 248 254 256 260 254 250 264 274 279 281 276 267 258 249 243 239 238 237 236 237 239 241 241 242 244 247 248 250 250 251 254 261 267 272 279 288 295 300
236 235 232 230 227 226 238 251 254 241 241 246 253 258 260 260 256 263 271 277 280 280 272 260 251 243 240 240 238 236 236 237 237 237 239 243 247 250 253 253 254 258 264 269 275 281 286 292 295
237 235 231 229 225 221 227 234 241 245 241 242 245 252 253 247 247 258 265 269 273 276 272 261 253 247 242 240 237 234 235 236 237 238 241 246 250 253 256 258 261 264 269 273 279 283 286 290 292
239 235 230 228 224 222 224 228 231 235 238 236 234 242 249 239 242 252 260 263 268 269 268 264 256 249 243 240 238 236 237 238 241 242 245 251 255 259 262 265 268 272 276 279 283 286 288 289 291
239 237 232 229 227 227 227 228 231 233 236 235 238 244 245 240 241 249 254 256 260 264 267 265 253 250 246 243 241 241 243 244 246 247 251 256 261 266 271 274 275 278 281 284 285 287 288 289 289
238 238 236 232 231 231 232 232 232 233 236 237 240 245 247 248 241 242 246 247 253 258 264 264 259 253 249 248 248 247 248 250 252 254 259 263 265 269 273 276 278 281 283 286 288 288 289 289 289
239 237 236 234 233 233 234 233 233 234 236 237 239 243 242 244 243 239 242 245 247 252 260 262 259 255 253 253 253 253 255 259 261 262 264 266 269 272 274 276 279 282 283 285 288 289 289 289 287
241 241 239 236 235 233 233 233 233 235 236 237 238 241 241 244 246 241 241 241 243 248 255 258 257 255 254 254 256 258 261 263 266 265 266 269 271 272 274 276 279 281 283 285 288 289 287 288 288
241 242 239 234 238 234 231 229 229 234 235 235 238 241 239 244 243 239 237 239 239 241 245 251 253 253 254 256 259 263 265 267 267 265 267 271 273 272 273 275 280 282 282 284 287 289 287 289 290
234 255 237 223 230 229 227 220 218 225 229 231 235 237 239 240 240 237 235 236 235 236 240 247 251 252 255 259 262 264 265 268 268 272 272 274 273 272 272 274 279 283 284 286 287 289 290 291 294
202 216 222 215 221 224 220 213 214 221 224 228 230 234 238 234 239 240 236 239 240 241 244 248 252 256 258 261 263 265 267 268 270 272 274 277 278 276 276 279 281 284 285 287 290 290 294 292 295
203 200 203 205 213 213 213 214 217 220 222 227 231 234 238 239 236 235 236 237 237 240 245 248 253 255 258 260 261 264 265 267 270 272 275 278 279 281 278 281 282 284 286 287 291 293 297 296 296
206 198 199 208 214 213 212 218 220 223 226 229 236 240 242 236 234 233 234 238 241 243 246 251 253 257 260 263 264 265 266 269 273 274 278 281 282 281 283 285 285 285 288 290 292 297 298 297 294
208 202 201 212 218 216 214 221 224 228 232 235 239 243 246 245 243 239 238 242 243 244 246 249 254 258 261 265 267 270 273 273 276 279 281 284 286 285 286 288 288 291 293 297 297 297 299 296 294
201 204 210 210 207 213 216 225 231 230 236 237 242 245 246 247 247 244 243 247 249 250 251 253 256 261 265 269 272 274 277 279 280 280 282 284 288 289 290 293 291 292 295 297 299 300 298 296 293
198 199 208 211 210 221 216 220 239 239 237 236 239 242 244 244 247 247 250 251 253 255 257 260 261 263 268 274 276 276 279 282 282 285 287 289 291 293 294 294 295 297 297 296 297 296 295 293 291
196 190 198 211 216 224 232 232 237 240 239 241 239 240 243 243 246 249 251 253 256 258 261 265 267 268 270 273 275 277 279 281 284 288 289 290 291 293 297 297 296 297 297 296 295 294 292 291 289
195 180 192 208 218 228 230 236 242 244 246 242 242 243 245 247 249 251 251 254 257 260 263 264 266 268 271 273 275 277 281 282 284 287 289 291 293 294 296 296 295 295 294 294 294 292 291 289 287
192 185 199 218 220 224 230 232 241 247 248 249 246 247 248 250 252 254 256 258 260 262 265 267 268 269 271 273 276 279 281 282 284 287 289 291 293 294 294 295 294 293 293 292 291 289 289 288 286
188 202 220 230 236 240 243 243 243 246 242 245 247 247 249 251 253 255 257 260 262 264 267 269 271 272 274 276 277 279 281 283 285 286 288 289 291 292 292 292 292 290 290 290 289 287 287 287 286
193 204 219 237 251 255 258 256 248 240 236 238 241 245 248 250 253 256 258 259 262 264 267 270 272 273 274 275 276 277 279 281 282 284 286 287 289 290 290 290 289 288 287 286 285 285 286 286 286
203 208 220 232 245 264 277 277 271 252 244 245 247 249 250 252 255 259 261 262 263 265 267 269 271 273 274 275 276 277 279 280 282 283 285 287 287 288 288 288 288 288 287 286 287 287 287 287 287